Voltar ao catálogo

KOSEN 1

KOSEN-1

AtivoRádio AmadorSSO
NORAD 49402·PAYLOAD·🇯🇵 Japan

Lançado Nov 9, 2021 de Uchinoura Space Center

Loading…

Próximas Passagens (próximas 24 horas)

TLE

AtualizadoSource: Space-Track

Época: Sep 14, 2026, 21:26 UTC

1 49402U 21102H   26257.89367789  .00006390  00000-0  23666-3 0  9998
2 49402  97.3104 298.3400 0011680 246.4600 113.5413 15.27934368267718

Acompanhe KOSEN 1 em tempo real com AllMySat

Download on the App Store